Simultaneous Nadir Overpasses (SNOs) Predictions

Prediction of SNOs between AQUA and NPP Satellite Orbit:

Table of predicted SNOs for the next 14.0 days since TLE Epoch: 2/8/2019
Index Date (AQUA) Time (AQUA) Lat,Lon (AQUA) SZA (AQUA ) Date (NPP) Time (NPP) Lat,Lon (NPP) SZA (NPP ) Distance(km) Time Diff (sec)
1 02/10/2019 05:37:34 58.57, -46.85 129.27 02/10/2019 05:36:22 58.78, -48.29 129.74 86.12 72
2 02/10/2019 06:21:35 -76.59, 145.61 68.67 02/10/2019 06:21:31 -76.59, 145.66 68.68 1.50 4
3 02/10/2019 07:10:32 77.89, -41.62 109.74 02/10/2019 07:11:46 77.85, -41.57 109.69 5.25 74
4 02/12/2019 21:48:54 75.70, 91.02 111.51 02/12/2019 21:47:58 75.69, 90.99 111.57 0.76 56
5 02/12/2019 22:37:58 -76.85, -97.58 69.84 02/12/2019 22:38:18 -76.86, -97.53 69.87 1.55 20
6 02/15/2019 14:05:15 76.11,-151.85 110.15 02/15/2019 14:04:43 76.11,-151.85 110.18 0.18 32
7 02/15/2019 14:54:21 -77.15, 19.42 71.10 02/15/2019 14:55:05 -77.16, 19.50 71.15 1.98 44
8 02/18/2019 06:21:36 76.51, -34.66 108.77 02/18/2019 06:21:28 76.51, -34.63 108.76 0.88 8
9 02/18/2019 07:10:44 -77.45, 136.46 72.38 02/18/2019 07:11:52 -77.46, 136.57 72.46 2.80 68
10 02/20/2019 21:48:52 -75.94, -88.24 71.52 02/20/2019 21:47:50 -75.95, -88.14 71.49 2.77 62




NCC Satellite Simultaneous Nadir Overpasses (SNOs) Prediction Service
